Year,Month,Day,Hour,Minute,Value (Times are PST for temperature in C)
2016,02,26,00,00,3.50
2016,02,26,00,01,3.50
2016,02,26,00,02,3.50
2016,02,26,00,03,3.50
2016,02,26,00,04,3.50
2016,02,26,00,05,3.50
2016,02,26,00,06,3.50
2016,02,26,00,07,3.50
2016,02,26,00,08,3.40
2016,02,26,00,09,3.50
2016,02,26,00,10,3.50
2016,02,26,00,11,3.50
2016,02,26,00,12,3.50
2016,02,26,00,13,3.50
2016,02,26,00,14,3.50
2016,02,26,00,15,3.50
2016,02,26,00,16,3.60
2016,02,26,00,17,3.60
2016,02,26,00,18,3.60
2016,02,26,00,19,3.60
2016,02,26,00,20,3.60
2016,02,26,00,21,3.60
2016,02,26,00,22,3.60
2016,02,26,00,23,3.60
2016,02,26,00,24,3.60
2016,02,26,00,25,3.60
2016,02,26,00,26,3.60
2016,02,26,00,27,3.60
2016,02,26,00,28,3.60
2016,02,26,00,29,3.60
2016,02,26,00,30,3.60
2016,02,26,00,31,3.60
2016,02,26,00,32,3.60
2016,02,26,00,33,3.60
2016,02,26,00,34,3.60
2016,02,26,00,35,3.60
2016,02,26,00,36,3.60
2016,02,26,00,37,3.60
2016,02,26,00,38,3.50
2016,02,26,00,39,3.50
2016,02,26,00,40,3.50
2016,02,26,00,41,3.50
2016,02,26,00,42,3.40
2016,02,26,00,43,3.40
2016,02,26,00,44,3.40
2016,02,26,00,45,3.30
2016,02,26,00,46,3.30
2016,02,26,00,47,3.30
2016,02,26,00,48,3.30
2016,02,26,00,49,3.30
2016,02,26,00,50,3.30
2016,02,26,00,51,3.30
2016,02,26,00,52,3.30
2016,02,26,00,53,3.30
2016,02,26,00,54,3.30
2016,02,26,00,55,3.30
2016,02,26,00,56,3.30
2016,02,26,00,57,3.30
2016,02,26,00,58,3.30
2016,02,26,00,59,3.30
2016,02,26,01,00,3.30
2016,02,26,01,01,3.30
2016,02,26,01,02,3.40
2016,02,26,01,03,3.40
2016,02,26,01,04,3.40
2016,02,26,01,05,3.40
2016,02,26,01,06,3.40
2016,02,26,01,07,3.40
2016,02,26,01,08,3.40
2016,02,26,01,09,3.40
2016,02,26,01,10,3.40
2016,02,26,01,11,3.40
2016,02,26,01,12,3.40
2016,02,26,01,13,3.40
2016,02,26,01,14,3.40
2016,02,26,01,15,3.40
2016,02,26,01,16,3.40
2016,02,26,01,17,3.40
2016,02,26,01,18,3.40
2016,02,26,01,19,3.40
2016,02,26,01,20,3.40
2016,02,26,01,21,3.40
2016,02,26,01,22,3.40
2016,02,26,01,23,3.40
2016,02,26,01,24,3.50
2016,02,26,01,25,3.50
2016,02,26,01,26,3.50
2016,02,26,01,27,3.60
2016,02,26,01,28,3.60
2016,02,26,01,29,3.60
2016,02,26,01,30,3.60
2016,02,26,01,31,3.60
2016,02,26,01,32,3.60
2016,02,26,01,33,3.60
2016,02,26,01,34,3.60
2016,02,26,01,35,3.50
2016,02,26,01,36,3.50
2016,02,26,01,37,3.50
2016,02,26,01,38,3.50
2016,02,26,01,39,3.60
2016,02,26,01,40,3.60
2016,02,26,01,41,3.60
2016,02,26,01,42,3.60
2016,02,26,01,43,3.60
2016,02,26,01,44,3.60
2016,02,26,01,45,3.60
2016,02,26,01,46,3.60
2016,02,26,01,47,3.60
2016,02,26,01,48,3.60
2016,02,26,01,49,3.70
2016,02,26,01,50,3.70
2016,02,26,01,51,3.70
2016,02,26,01,52,3.70
2016,02,26,01,53,3.70
2016,02,26,01,54,3.70
2016,02,26,01,55,3.70
2016,02,26,01,56,3.70
2016,02,26,01,57,3.70
2016,02,26,01,58,3.70
2016,02,26,01,59,3.80
2016,02,26,02,00,3.80
2016,02,26,02,01,3.80
2016,02,26,02,02,3.80
2016,02,26,02,03,3.80
2016,02,26,02,04,3.80
2016,02,26,02,05,3.80
2016,02,26,02,06,3.80
2016,02,26,02,07,3.80
2016,02,26,02,08,3.80
2016,02,26,02,09,3.80
2016,02,26,02,10,3.80
2016,02,26,02,11,3.80
2016,02,26,02,12,3.80
2016,02,26,02,13,3.70
2016,02,26,02,14,3.70
2016,02,26,02,15,3.70
2016,02,26,02,16,3.70
2016,02,26,02,17,3.60
2016,02,26,02,18,3.60
2016,02,26,02,19,3.60
2016,02,26,02,20,3.60
2016,02,26,02,21,3.60
2016,02,26,02,22,3.60
2016,02,26,02,23,3.60
2016,02,26,02,24,3.60
2016,02,26,02,25,3.60
2016,02,26,02,26,3.60
2016,02,26,02,27,3.50
2016,02,26,02,28,3.50
2016,02,26,02,29,3.50
2016,02,26,02,30,3.50
2016,02,26,02,31,3.50
2016,02,26,02,32,3.50
2016,02,26,02,33,3.50
2016,02,26,02,34,3.50
2016,02,26,02,35,3.50
2016,02,26,02,36,3.50
2016,02,26,02,37,3.50
2016,02,26,02,38,3.50
2016,02,26,02,39,3.50
2016,02,26,02,40,3.50
2016,02,26,02,41,3.50
2016,02,26,02,42,3.50
2016,02,26,02,43,3.50
2016,02,26,02,44,3.50
2016,02,26,02,45,3.50
2016,02,26,02,46,3.50
2016,02,26,02,47,3.50
2016,02,26,02,48,3.60
2016,02,26,02,49,3.50
2016,02,26,02,50,3.50
2016,02,26,02,51,3.50
2016,02,26,02,52,3.50
2016,02,26,02,53,3.50
2016,02,26,02,54,3.50
2016,02,26,02,55,3.40
2016,02,26,02,56,3.40
2016,02,26,02,57,3.40
2016,02,26,02,58,3.40
2016,02,26,02,59,3.40
2016,02,26,03,00,3.40
2016,02,26,03,01,3.50
2016,02,26,03,02,3.50
2016,02,26,03,03,3.50
2016,02,26,03,04,3.60
2016,02,26,03,05,3.60
2016,02,26,03,06,3.60
2016,02,26,03,07,3.70
2016,02,26,03,08,3.70
2016,02,26,03,09,3.70
2016,02,26,03,10,3.70
2016,02,26,03,11,3.70
2016,02,26,03,12,3.70
2016,02,26,03,13,3.70
2016,02,26,03,14,3.70
2016,02,26,03,15,3.70
2016,02,26,03,16,3.70
2016,02,26,03,17,3.70
2016,02,26,03,18,3.70
2016,02,26,03,19,3.60
2016,02,26,03,20,3.60
2016,02,26,03,21,3.60
2016,02,26,03,22,3.60
2016,02,26,03,23,3.60
2016,02,26,03,24,3.60
2016,02,26,03,25,3.60
2016,02,26,03,26,3.60
2016,02,26,03,27,3.60
2016,02,26,03,28,3.50
2016,02,26,03,29,3.50
2016,02,26,03,30,3.50
2016,02,26,03,31,3.40
2016,02,26,03,32,3.40
2016,02,26,03,33,3.40
2016,02,26,03,34,3.30
2016,02,26,03,35,3.30
2016,02,26,03,36,3.30
2016,02,26,03,37,3.30
2016,02,26,03,38,3.40
2016,02,26,03,39,3.40
2016,02,26,03,40,3.40
2016,02,26,03,41,3.50
2016,02,26,03,42,3.50
2016,02,26,03,43,3.40
2016,02,26,03,44,3.40
2016,02,26,03,45,3.40
2016,02,26,03,46,3.40
2016,02,26,03,47,3.40
2016,02,26,03,48,3.40
2016,02,26,03,49,3.40
2016,02,26,03,50,3.40
2016,02,26,03,51,3.40
2016,02,26,03,52,3.40
2016,02,26,03,53,3.40
2016,02,26,03,54,3.40
2016,02,26,03,55,3.40
2016,02,26,03,56,3.40
2016,02,26,03,57,3.40
2016,02,26,03,58,3.30
2016,02,26,03,59,3.30
2016,02,26,04,00,3.30
2016,02,26,04,01,3.30
2016,02,26,04,02,3.30
2016,02,26,04,03,3.30
2016,02,26,04,04,3.40
2016,02,26,04,05,3.40
2016,02,26,04,06,3.40
2016,02,26,04,07,3.50
2016,02,26,04,08,3.50
2016,02,26,04,09,3.50
2016,02,26,04,10,3.60
2016,02,26,04,11,3.60
2016,02,26,04,12,3.60
2016,02,26,04,13,3.60
2016,02,26,04,14,3.60
2016,02,26,04,15,3.60
2016,02,26,04,16,3.60
2016,02,26,04,17,3.60
2016,02,26,04,18,3.50
2016,02,26,04,19,3.50
2016,02,26,04,20,3.50
2016,02,26,04,21,3.50
2016,02,26,04,22,3.50
2016,02,26,04,23,3.50
2016,02,26,04,24,3.60
2016,02,26,04,25,3.60
2016,02,26,04,26,3.50
2016,02,26,04,27,3.50
2016,02,26,04,28,3.50
2016,02,26,04,29,3.50
2016,02,26,04,30,3.40
2016,02,26,04,31,3.40
2016,02,26,04,32,3.40
2016,02,26,04,33,3.40
2016,02,26,04,34,3.40
2016,02,26,04,35,3.40
2016,02,26,04,36,3.40
2016,02,26,04,37,3.40
2016,02,26,04,38,3.50
2016,02,26,04,39,3.50
2016,02,26,04,40,3.50
2016,02,26,04,41,3.50
2016,02,26,04,42,3.50
2016,02,26,04,43,3.50
2016,02,26,04,44,3.50
2016,02,26,04,45,3.40
2016,02,26,04,46,3.40
2016,02,26,04,47,3.40
2016,02,26,04,48,3.40
2016,02,26,04,49,3.40
2016,02,26,04,50,3.40
2016,02,26,04,51,3.50
2016,02,26,04,52,3.50
2016,02,26,04,53,3.60
2016,02,26,04,54,3.60
2016,02,26,04,55,3.60
2016,02,26,04,56,3.60
2016,02,26,04,57,3.60
2016,02,26,04,58,3.60
2016,02,26,04,59,3.60
2016,02,26,05,00,3.60
2016,02,26,05,01,3.60
2016,02,26,05,02,3.60
2016,02,26,05,03,3.60
2016,02,26,05,04,3.70
2016,02,26,05,05,3.70
2016,02,26,05,06,3.80
2016,02,26,05,07,3.80
2016,02,26,05,08,3.90
2016,02,26,05,09,4.00
2016,02,26,05,10,4.10
2016,02,26,05,11,4.20
2016,02,26,05,12,4.40
2016,02,26,05,13,4.50
2016,02,26,05,14,4.60
2016,02,26,05,15,4.70
2016,02,26,05,16,4.80
2016,02,26,05,17,4.80
2016,02,26,05,18,4.90
2016,02,26,05,19,5.00
2016,02,26,05,20,5.00
2016,02,26,05,21,5.10
2016,02,26,05,22,5.20
2016,02,26,05,23,5.30
2016,02,26,05,24,5.40
2016,02,26,05,25,5.50
2016,02,26,05,26,5.60
2016,02,26,05,27,5.70
2016,02,26,05,28,5.70
2016,02,26,05,29,5.80
2016,02,26,05,30,5.90
2016,02,26,05,31,5.90
2016,02,26,05,32,5.90
2016,02,26,05,33,6.00
2016,02,26,05,34,6.10
2016,02,26,05,35,6.10
2016,02,26,05,36,6.20
2016,02,26,05,37,6.30
2016,02,26,05,38,6.30
2016,02,26,05,39,6.40
2016,02,26,05,40,6.50
2016,02,26,05,41,6.60
2016,02,26,05,42,6.70
2016,02,26,05,43,6.80
2016,02,26,05,44,6.80
2016,02,26,05,45,6.80
2016,02,26,05,46,6.80
2016,02,26,05,47,6.90
2016,02,26,05,48,6.90
2016,02,26,05,49,7.00
2016,02,26,05,50,7.00
2016,02,26,05,51,7.00
2016,02,26,05,52,7.10
2016,02,26,05,53,7.10
2016,02,26,05,54,7.10
2016,02,26,05,55,7.10
2016,02,26,05,56,7.10
2016,02,26,05,57,7.10
2016,02,26,05,58,7.10
2016,02,26,05,59,7.10
2016,02,26,06,00,7.00
2016,02,26,06,01,7.00
2016,02,26,06,02,7.00
2016,02,26,06,03,6.90
2016,02,26,06,04,6.90
2016,02,26,06,05,6.80
2016,02,26,06,06,6.80
2016,02,26,06,07,6.80
2016,02,26,06,08,6.80
2016,02,26,06,09,6.70
2016,02,26,06,10,6.70
2016,02,26,06,11,6.70
2016,02,26,06,12,6.70
2016,02,26,06,13,6.70
2016,02,26,06,14,6.70
2016,02,26,06,15,6.80
2016,02,26,06,16,6.80
2016,02,26,06,17,6.80
2016,02,26,06,18,6.80
2016,02,26,06,19,6.80
2016,02,26,06,20,6.80
2016,02,26,06,21,6.80
2016,02,26,06,22,6.80
2016,02,26,06,23,6.80
2016,02,26,06,24,6.80
2016,02,26,06,25,6.80
2016,02,26,06,26,6.80
2016,02,26,06,27,6.90
2016,02,26,06,28,7.00
2016,02,26,06,29,7.10
2016,02,26,06,30,7.10
2016,02,26,06,31,7.20
2016,02,26,06,32,7.20
2016,02,26,06,33,7.20
2016,02,26,06,34,7.20
2016,02,26,06,35,7.30
2016,02,26,06,36,7.30
2016,02,26,06,37,7.30
2016,02,26,06,38,7.30
2016,02,26,06,39,7.30
2016,02,26,06,40,7.40
2016,02,26,06,41,7.50
2016,02,26,06,42,7.50
2016,02,26,06,43,7.60
2016,02,26,06,44,7.60
2016,02,26,06,45,7.60
2016,02,26,06,46,7.60
2016,02,26,06,47,7.60
2016,02,26,06,48,7.60
2016,02,26,06,49,7.60
2016,02,26,06,50,7.60
2016,02,26,06,51,7.50
2016,02,26,06,52,7.50
2016,02,26,06,53,7.50
2016,02,26,06,54,7.60
2016,02,26,06,55,7.60
2016,02,26,06,56,7.60
2016,02,26,06,57,7.60
2016,02,26,06,58,7.60
2016,02,26,06,59,7.60
2016,02,26,07,00,7.60
2016,02,26,07,01,7.70
2016,02,26,07,02,7.70
2016,02,26,07,03,7.70
2016,02,26,07,04,7.80
2016,02,26,07,05,7.80
2016,02,26,07,06,7.90
2016,02,26,07,07,7.90
2016,02,26,07,08,7.90
2016,02,26,07,09,7.90
2016,02,26,07,10,7.90
2016,02,26,07,11,8.00
2016,02,26,07,12,7.90
2016,02,26,07,13,7.90
2016,02,26,07,14,7.90
2016,02,26,07,15,7.80
2016,02,26,07,16,7.80
2016,02,26,07,17,7.80
2016,02,26,07,18,7.80
2016,02,26,07,19,7.80
2016,02,26,07,20,7.80
2016,02,26,07,21,7.80
2016,02,26,07,22,7.80
2016,02,26,07,23,7.80
2016,02,26,07,24,7.80
2016,02,26,07,25,7.80
2016,02,26,07,26,7.80
2016,02,26,07,27,7.80
2016,02,26,07,28,7.80
2016,02,26,07,29,7.80
2016,02,26,07,30,7.80
2016,02,26,07,31,7.80
2016,02,26,07,32,7.80
2016,02,26,07,33,7.80
2016,02,26,07,34,7.80
2016,02,26,07,35,7.80
2016,02,26,07,36,7.80
2016,02,26,07,37,7.80
2016,02,26,07,38,7.80
2016,02,26,07,39,7.90
2016,02,26,07,40,7.90
2016,02,26,07,41,7.80
2016,02,26,07,42,7.80
2016,02,26,07,43,7.80
2016,02,26,07,44,7.80
2016,02,26,07,45,7.80
2016,02,26,07,46,7.80
2016,02,26,07,47,7.80
2016,02,26,07,48,7.80
2016,02,26,07,49,7.80
2016,02,26,07,50,7.90
2016,02,26,07,51,7.90
2016,02,26,07,52,7.90
2016,02,26,07,53,8.00
2016,02,26,07,54,8.00
2016,02,26,07,55,8.00
2016,02,26,07,56,8.00
2016,02,26,07,57,8.00
2016,02,26,07,58,8.00
2016,02,26,07,59,8.00
2016,02,26,08,00,8.10
2016,02,26,08,01,8.10
2016,02,26,08,02,8.10
2016,02,26,08,03,8.10
2016,02,26,08,04,8.10
2016,02,26,08,05,8.10
2016,02,26,08,06,8.10
2016,02,26,08,07,8.10
2016,02,26,08,08,8.00
2016,02,26,08,09,8.00
2016,02,26,08,10,8.00
2016,02,26,08,11,8.00
2016,02,26,08,12,8.00
2016,02,26,08,13,7.90
2016,02,26,08,14,7.90
2016,02,26,08,15,7.90
2016,02,26,08,16,7.90
2016,02,26,08,17,7.90
2016,02,26,08,18,7.90
2016,02,26,08,19,7.80
2016,02,26,08,20,7.80
2016,02,26,08,21,7.80
2016,02,26,08,22,7.80
2016,02,26,08,23,7.90
2016,02,26,08,24,7.90
2016,02,26,08,25,7.90
2016,02,26,08,26,7.90
2016,02,26,08,27,7.90
2016,02,26,08,28,7.90
2016,02,26,08,29,7.90
2016,02,26,08,30,7.90
2016,02,26,08,31,7.90
2016,02,26,08,32,7.90
2016,02,26,08,33,7.90
2016,02,26,08,34,7.90
2016,02,26,08,35,7.90
2016,02,26,08,36,7.90
2016,02,26,08,37,7.90
2016,02,26,08,38,7.90
2016,02,26,08,39,7.90
2016,02,26,08,40,7.90
2016,02,26,08,41,7.90
2016,02,26,08,42,7.90
2016,02,26,08,43,7.90
2016,02,26,08,44,7.90
2016,02,26,08,45,7.80
2016,02,26,08,46,7.80
2016,02,26,08,47,7.80
2016,02,26,08,48,7.80
2016,02,26,08,49,7.80
2016,02,26,08,50,7.80
2016,02,26,08,51,7.80
2016,02,26,08,52,7.80
2016,02,26,08,53,7.80
2016,02,26,08,54,7.80
2016,02,26,08,55,7.80
2016,02,26,08,56,7.80
2016,02,26,08,57,7.80
2016,02,26,08,58,7.80
2016,02,26,08,59,7.80
2016,02,26,09,00,7.80
2016,02,26,09,01,7.80
2016,02,26,09,02,7.80
2016,02,26,09,03,7.80
2016,02,26,09,04,7.80
2016,02,26,09,05,7.80
2016,02,26,09,06,7.90
2016,02,26,09,07,7.90
2016,02,26,09,08,7.90
2016,02,26,09,09,7.90
2016,02,26,09,10,8.00
2016,02,26,09,11,8.00
2016,02,26,09,12,8.00
2016,02,26,09,13,8.00
2016,02,26,09,14,8.10
2016,02,26,09,15,8.10
2016,02,26,09,16,8.20
2016,02,26,09,17,8.20
2016,02,26,09,18,8.30
2016,02,26,09,19,8.30
2016,02,26,09,20,8.30
2016,02,26,09,21,8.40
2016,02,26,09,22,8.50
2016,02,26,09,23,8.50
2016,02,26,09,24,8.60
2016,02,26,09,25,8.60
2016,02,26,09,26,8.70
2016,02,26,09,27,8.70
2016,02,26,09,28,8.70
2016,02,26,09,29,8.70
2016,02,26,09,30,8.80
2016,02,26,09,31,8.80
2016,02,26,09,32,8.80
2016,02,26,09,33,8.80
2016,02,26,09,34,8.90
2016,02,26,09,35,8.90
2016,02,26,09,36,9.00
2016,02,26,09,37,9.10
2016,02,26,09,38,9.10
2016,02,26,09,39,9.10
2016,02,26,09,40,9.10
2016,02,26,09,41,9.10
2016,02,26,09,42,9.10
2016,02,26,09,43,9.10
2016,02,26,09,44,9.10
2016,02,26,09,45,9.10
2016,02,26,09,46,9.10
2016,02,26,09,47,9.10
2016,02,26,09,48,9.10
2016,02,26,09,49,9.10
2016,02,26,09,50,9.10
2016,02,26,09,51,9.10
2016,02,26,09,52,9.10
2016,02,26,09,53,9.10
2016,02,26,09,54,9.10
2016,02,26,09,55,9.20
2016,02,26,09,56,9.20
2016,02,26,09,57,9.20
2016,02,26,09,58,9.20
2016,02,26,09,59,9.20
2016,02,26,10,00,9.20
2016,02,26,10,01,9.30
2016,02,26,10,02,9.30
2016,02,26,10,03,9.30
2016,02,26,10,04,9.30
2016,02,26,10,05,9.30
2016,02,26,10,06,9.40
2016,02,26,10,07,9.40
2016,02,26,10,08,9.50
2016,02,26,10,09,9.50
2016,02,26,10,10,9.60
2016,02,26,10,11,9.60
2016,02,26,10,12,9.70
2016,02,26,10,13,9.70
2016,02,26,10,14,9.80
2016,02,26,10,15,9.80
2016,02,26,10,16,9.80
2016,02,26,10,17,9.90
2016,02,26,10,18,9.90
2016,02,26,10,19,10.00
2016,02,26,10,20,10.00
2016,02,26,10,21,10.10
2016,02,26,10,22,10.10
2016,02,26,10,23,10.20
2016,02,26,10,24,10.20
2016,02,26,10,25,10.30
2016,02,26,10,26,10.30
2016,02,26,10,27,10.30
2016,02,26,10,28,10.40
2016,02,26,10,29,10.40
2016,02,26,10,30,10.40
2016,02,26,10,31,10.30
2016,02,26,10,32,10.20
2016,02,26,10,33,10.10
2016,02,26,10,34,10.00
2016,02,26,10,35,10.00
2016,02,26,10,36,9.90
2016,02,26,10,37,9.90
2016,02,26,10,38,9.90
2016,02,26,10,39,9.80
2016,02,26,10,40,9.80
2016,02,26,10,41,9.80
2016,02,26,10,42,9.70
2016,02,26,10,43,9.70
2016,02,26,10,44,9.70
2016,02,26,10,45,9.60
2016,02,26,10,46,9.60
2016,02,26,10,47,9.60
2016,02,26,10,48,9.60
2016,02,26,10,49,9.60
2016,02,26,10,50,9.60
2016,02,26,10,51,9.60
2016,02,26,10,52,9.60
2016,02,26,10,53,9.60
2016,02,26,10,54,9.60
2016,02,26,10,55,9.60
2016,02,26,10,56,9.60
2016,02,26,10,57,9.60
2016,02,26,10,58,9.60
2016,02,26,10,59,9.60
2016,02,26,11,00,9.60
2016,02,26,11,01,9.60
2016,02,26,11,02,9.70
2016,02,26,11,03,9.70
2016,02,26,11,04,9.70
2016,02,26,11,05,9.70
2016,02,26,11,06,9.70
2016,02,26,11,07,9.70
2016,02,26,11,08,9.70
2016,02,26,11,09,9.70
2016,02,26,11,10,9.70
2016,02,26,11,11,9.70
2016,02,26,11,12,9.70
2016,02,26,11,13,9.80
2016,02,26,11,14,9.80
2016,02,26,11,15,9.80
2016,02,26,11,16,9.80
2016,02,26,11,17,9.90
2016,02,26,11,18,9.90
2016,02,26,11,19,9.90
2016,02,26,11,20,9.90
2016,02,26,11,21,9.90
2016,02,26,11,22,9.90
2016,02,26,11,23,9.90
2016,02,26,11,24,9.90
2016,02,26,11,25,9.90
2016,02,26,11,26,9.90
2016,02,26,11,27,9.90
2016,02,26,11,28,9.90
2016,02,26,11,29,9.90
2016,02,26,11,30,9.90
2016,02,26,11,31,9.90
2016,02,26,11,32,9.90
2016,02,26,11,33,9.90
2016,02,26,11,34,9.90
2016,02,26,11,35,9.80
2016,02,26,11,36,9.80
2016,02,26,11,37,9.70
2016,02,26,11,38,9.70
2016,02,26,11,39,9.60
2016,02,26,11,40,9.60
2016,02,26,11,41,9.60
2016,02,26,11,42,9.60
2016,02,26,11,43,9.60
2016,02,26,11,44,9.60
2016,02,26,11,45,9.60
2016,02,26,11,46,9.50
2016,02,26,11,47,9.50
2016,02,26,11,48,9.50
2016,02,26,11,49,9.40
2016,02,26,11,50,9.40
2016,02,26,11,51,9.40
2016,02,26,11,52,9.40
2016,02,26,11,53,9.30
2016,02,26,11,54,9.30
2016,02,26,11,55,9.30
2016,02,26,11,56,9.30
2016,02,26,11,57,9.30
2016,02,26,11,58,9.30
2016,02,26,11,59,9.30
2016,02,26,12,00,9.30
2016,02,26,12,01,9.30
2016,02,26,12,02,9.30
2016,02,26,12,03,9.30
2016,02,26,12,04,9.30
2016,02,26,12,05,9.30
2016,02,26,12,06,9.30
2016,02,26,12,07,9.40
2016,02,26,12,08,9.40
2016,02,26,12,09,9.40
2016,02,26,12,10,9.40
2016,02,26,12,11,9.40
2016,02,26,12,12,9.40
2016,02,26,12,13,9.40
2016,02,26,12,14,9.50
2016,02,26,12,15,9.50
2016,02,26,12,16,9.60
2016,02,26,12,17,9.60
2016,02,26,12,18,9.60
2016,02,26,12,19,9.60
2016,02,26,12,20,9.60
2016,02,26,12,21,9.70
2016,02,26,12,22,9.70
2016,02,26,12,23,9.80
2016,02,26,12,24,9.80
2016,02,26,12,25,9.80
2016,02,26,12,26,9.80
2016,02,26,12,27,9.90
2016,02,26,12,28,9.90
2016,02,26,12,29,9.90
2016,02,26,12,30,9.90
2016,02,26,12,31,10.00
2016,02,26,12,32,10.00
2016,02,26,12,33,10.00
2016,02,26,12,34,10.10
2016,02,26,12,35,10.10
2016,02,26,12,36,10.10
2016,02,26,12,37,10.00
2016,02,26,12,38,10.00
2016,02,26,12,39,10.00
2016,02,26,12,40,10.00
2016,02,26,12,41,10.00
2016,02,26,12,42,10.00
2016,02,26,12,43,10.10
2016,02,26,12,44,10.10
2016,02,26,12,45,10.10
2016,02,26,12,46,10.10
2016,02,26,12,47,10.20
2016,02,26,12,48,10.20
2016,02,26,12,49,10.20
2016,02,26,12,50,10.20
2016,02,26,12,51,10.20
2016,02,26,12,52,10.20
2016,02,26,12,53,10.20
2016,02,26,12,54,10.30
2016,02,26,12,55,10.30
2016,02,26,12,56,10.30
2016,02,26,12,57,10.30
2016,02,26,12,58,10.30
2016,02,26,12,59,10.30
2016,02,26,13,00,10.30
2016,02,26,13,01,10.30
2016,02,26,13,02,10.30
2016,02,26,13,03,10.30
2016,02,26,13,04,10.30
2016,02,26,13,05,10.30
2016,02,26,13,06,10.30
2016,02,26,13,07,10.30
2016,02,26,13,08,10.30
2016,02,26,13,09,10.30
2016,02,26,13,10,10.30
2016,02,26,13,11,10.30
2016,02,26,13,12,10.20
2016,02,26,13,13,10.30
2016,02,26,13,14,10.30
2016,02,26,13,15,10.30
2016,02,26,13,16,10.30
2016,02,26,13,17,10.30
2016,02,26,13,18,10.30
2016,02,26,13,19,10.30
2016,02,26,13,20,10.30
2016,02,26,13,21,10.30
2016,02,26,13,22,10.30
2016,02,26,13,23,10.30
2016,02,26,13,24,10.30
2016,02,26,13,25,10.20
2016,02,26,13,26,10.20
2016,02,26,13,27,10.10
2016,02,26,13,28,10.10
2016,02,26,13,29,10.00
2016,02,26,13,30,10.00
2016,02,26,13,31,9.90
2016,02,26,13,32,9.90
2016,02,26,13,33,9.90
2016,02,26,13,34,9.90
2016,02,26,13,35,9.80
2016,02,26,13,36,9.80
2016,02,26,13,37,9.80
2016,02,26,13,38,9.80
2016,02,26,13,39,9.70
2016,02,26,13,40,9.70
2016,02,26,13,41,9.70
2016,02,26,13,42,9.70
2016,02,26,13,43,9.60
2016,02,26,13,44,9.60
2016,02,26,13,45,9.60
2016,02,26,13,46,9.60
2016,02,26,13,47,9.60
2016,02,26,13,48,9.60
2016,02,26,13,49,9.60
2016,02,26,13,50,9.60
2016,02,26,13,51,9.60
2016,02,26,13,52,9.70
2016,02,26,13,53,9.70
2016,02,26,13,54,9.80
2016,02,26,13,55,9.80
2016,02,26,13,56,9.80
2016,02,26,13,57,9.80
2016,02,26,13,58,9.90
2016,02,26,13,59,9.90
2016,02,26,14,00,9.90
2016,02,26,14,01,9.90
2016,02,26,14,02,9.90
2016,02,26,14,03,9.80
2016,02,26,14,04,9.80
2016,02,26,14,05,9.80
2016,02,26,14,06,9.70
2016,02,26,14,07,9.70
2016,02,26,14,08,9.60
2016,02,26,14,09,9.60
2016,02,26,14,10,9.60
2016,02,26,14,11,9.60
2016,02,26,14,12,9.60
2016,02,26,14,13,9.60
2016,02,26,14,14,9.50
2016,02,26,14,15,9.50
2016,02,26,14,16,9.50
2016,02,26,14,17,9.40
2016,02,26,14,18,9.40
2016,02,26,14,19,9.30
2016,02,26,14,20,9.30
2016,02,26,14,21,9.30
2016,02,26,14,22,9.30
2016,02,26,14,23,9.20
2016,02,26,14,24,9.20
2016,02,26,14,25,9.20
2016,02,26,14,26,9.10
2016,02,26,14,27,9.10
2016,02,26,14,28,9.10
2016,02,26,14,29,9.00
2016,02,26,14,30,9.00
2016,02,26,14,31,8.90
2016,02,26,14,32,8.90
2016,02,26,14,33,8.80
2016,02,26,14,34,8.80
2016,02,26,14,35,8.70
2016,02,26,14,36,8.70
2016,02,26,14,37,8.70
2016,02,26,14,38,8.60
2016,02,26,14,39,8.60
2016,02,26,14,40,8.60
2016,02,26,14,41,8.50
2016,02,26,14,42,8.50
2016,02,26,14,43,8.50
2016,02,26,14,44,8.40
2016,02,26,14,45,8.30
2016,02,26,14,46,8.30
2016,02,26,14,47,8.20
2016,02,26,14,48,8.20
2016,02,26,14,49,8.10
2016,02,26,14,50,8.10
2016,02,26,14,51,8.00
2016,02,26,14,52,8.00
2016,02,26,14,53,8.00
2016,02,26,14,54,7.90
2016,02,26,14,55,7.90
2016,02,26,14,56,7.90
2016,02,26,14,57,7.90
2016,02,26,14,58,7.80
2016,02,26,14,59,7.80
2016,02,26,15,00,7.80
2016,02,26,15,01,7.80
2016,02,26,15,02,7.80
2016,02,26,15,03,7.80
2016,02,26,15,04,7.80
2016,02,26,15,05,7.70
2016,02,26,15,06,7.70
2016,02,26,15,07,7.70
2016,02,26,15,08,7.70
2016,02,26,15,09,7.70
2016,02,26,15,10,7.70
2016,02,26,15,11,7.70
2016,02,26,15,12,7.70
2016,02,26,15,13,7.70
2016,02,26,15,14,7.70
2016,02,26,15,15,7.60
2016,02,26,15,16,7.60
2016,02,26,15,17,7.60
2016,02,26,15,18,7.60
2016,02,26,15,19,7.60
2016,02,26,15,20,7.60
2016,02,26,15,21,7.60
2016,02,26,15,22,7.60
2016,02,26,15,23,7.60
2016,02,26,15,24,7.60
2016,02,26,15,25,7.60
2016,02,26,15,26,7.60
2016,02,26,15,27,7.60
2016,02,26,15,28,7.60
2016,02,26,15,29,7.60
2016,02,26,15,30,7.60
2016,02,26,15,31,7.60
2016,02,26,15,32,7.60
2016,02,26,15,33,7.60
2016,02,26,15,34,7.60
2016,02,26,15,35,7.60
2016,02,26,15,36,7.60
2016,02,26,15,37,7.60
2016,02,26,15,38,7.60
2016,02,26,15,39,7.60
2016,02,26,15,40,7.50
2016,02,26,15,41,7.50
2016,02,26,15,42,7.50
2016,02,26,15,43,7.50
2016,02,26,15,44,7.50
2016,02,26,15,45,7.50
2016,02,26,15,46,7.50
2016,02,26,15,47,7.50
2016,02,26,15,48,7.50
2016,02,26,15,49,7.50
2016,02,26,15,50,7.50
2016,02,26,15,51,7.50
2016,02,26,15,52,7.60
2016,02,26,15,53,7.60
2016,02,26,15,54,7.60
2016,02,26,15,55,7.60
2016,02,26,15,56,7.60
2016,02,26,15,57,7.60
2016,02,26,15,58,7.60
2016,02,26,15,59,7.60
2016,02,26,16,00,7.60
2016,02,26,16,01,7.60
2016,02,26,16,02,7.60
2016,02,26,16,03,7.60
2016,02,26,16,04,7.60
2016,02,26,16,05,7.60
2016,02,26,16,06,7.60
2016,02,26,16,07,7.60
2016,02,26,16,08,7.60
2016,02,26,16,09,7.60
2016,02,26,16,10,7.60
2016,02,26,16,11,7.60
2016,02,26,16,12,7.60
2016,02,26,16,13,7.60
2016,02,26,16,14,7.60
2016,02,26,16,15,7.60
2016,02,26,16,16,7.60
2016,02,26,16,17,7.60
2016,02,26,16,18,7.60
2016,02,26,16,19,7.60
2016,02,26,16,20,7.60
2016,02,26,16,21,7.60
2016,02,26,16,22,7.50
2016,02,26,16,23,7.50
2016,02,26,16,24,7.50
2016,02,26,16,25,7.50
2016,02,26,16,26,7.50
2016,02,26,16,27,7.50
2016,02,26,16,28,7.50
2016,02,26,16,29,7.50
2016,02,26,16,30,7.50
2016,02,26,16,31,7.50
2016,02,26,16,32,7.50
2016,02,26,16,33,7.50
2016,02,26,16,34,7.50
2016,02,26,16,35,7.50
2016,02,26,16,36,7.50
2016,02,26,16,37,7.50
2016,02,26,16,38,7.50
2016,02,26,16,39,7.50
2016,02,26,16,40,7.50
2016,02,26,16,41,7.50
2016,02,26,16,42,7.50
2016,02,26,16,43,7.50
2016,02,26,16,44,7.50
2016,02,26,16,45,7.50
2016,02,26,16,46,7.50
2016,02,26,16,47,7.50
2016,02,26,16,48,7.50
2016,02,26,16,49,7.50
2016,02,26,16,50,7.40
2016,02,26,16,51,7.40
2016,02,26,16,52,7.40
2016,02,26,16,53,7.40
2016,02,26,16,54,7.40
2016,02,26,16,55,7.40
2016,02,26,16,56,7.40
2016,02,26,16,57,7.40
2016,02,26,16,58,7.40
2016,02,26,16,59,7.40
2016,02,26,17,00,7.40
2016,02,26,17,01,7.40
2016,02,26,17,02,7.40
2016,02,26,17,03,7.40
2016,02,26,17,04,7.40
2016,02,26,17,05,7.40
2016,02,26,17,06,7.30
2016,02,26,17,07,7.30
2016,02,26,17,08,7.30
2016,02,26,17,09,7.30
2016,02,26,17,10,7.30
2016,02,26,17,11,7.30
2016,02,26,17,12,7.30
2016,02,26,17,13,7.30
2016,02,26,17,14,7.30
2016,02,26,17,15,7.30
2016,02,26,17,16,7.30
2016,02,26,17,17,7.30
2016,02,26,17,18,7.30
2016,02,26,17,19,7.30
2016,02,26,17,20,7.30
2016,02,26,17,21,7.30
2016,02,26,17,22,7.30
2016,02,26,17,23,7.30
2016,02,26,17,24,7.30
2016,02,26,17,25,7.30
2016,02,26,17,26,7.30
2016,02,26,17,27,7.30
2016,02,26,17,28,7.30
2016,02,26,17,29,7.30
2016,02,26,17,30,7.30
2016,02,26,17,31,7.30
2016,02,26,17,32,7.30
2016,02,26,17,33,7.20
2016,02,26,17,34,7.20
2016,02,26,17,35,7.20
2016,02,26,17,36,7.20
2016,02,26,17,37,7.20
2016,02,26,17,38,7.20
2016,02,26,17,39,7.20
2016,02,26,17,40,7.20
2016,02,26,17,41,7.20
2016,02,26,17,42,7.20
2016,02,26,17,43,7.20
2016,02,26,17,44,7.20
2016,02,26,17,45,7.20
2016,02,26,17,46,7.20
2016,02,26,17,47,7.20
2016,02,26,17,48,7.20
2016,02,26,17,49,7.20
2016,02,26,17,50,7.20
2016,02,26,17,51,7.20
2016,02,26,17,52,7.20
2016,02,26,17,53,7.20
2016,02,26,17,54,7.20
2016,02,26,17,55,7.20
2016,02,26,17,56,7.20
2016,02,26,17,57,7.20
2016,02,26,17,58,7.20
2016,02,26,17,59,7.20
2016,02,26,18,00,7.20
2016,02,26,18,01,7.20
2016,02,26,18,02,7.20
2016,02,26,18,03,7.20